Location: Arcueil
(48.7999°N, 2.3326°E)
Time: 15:57:01
(UTC+00:00)

Cosmos 2315 Rocket - Pass Details

Date: 03 February 2023
Orbit: 965 x 1002 km, 82.9° (Epoch: 26 March)

Event Time Altitude Azimuth Distance (km) Brightness Sun altitude
Rises 18:48:03 0° 160° (SSE) 3,691 6.9 -19.4°
Reaches altitude 10° 18:50:43 10° 153° (SSE) 2,752 6.1 -19.8°
Maximum altitude 18:56:27 38° 87° (E) 1,479 4.4 -20.8°
Drops below altitude 10° 19:02:16 10° 22° (NNE) 2,785 6.2 -21.7°
Sets 19:04:58 0° 15° (NNE) 3,740 6.9 -22.2°
